sat.trackr.live / text

‹ back to catalog

STARLINK-5016

NORAD 56143 · 2023-046BD

PAYLOAD ACTIVE UNKNOWN

§ Identity

Operator
Country
US
Launch date
2023-03-29
Launch site
AFETR
Launch vehicle
Mass (kg)
RCS (m²)

Purposes: comms

External: N2YO · Heavens-Above · Gunter

§ Orbital elements

Epoch: 2026-09-19T01:43:52.044096Z

Period
94.69 min
Inclination
42.9963°
Eccentricity
0.0006515
Mean motion
15.20810724 rev/d
Perigee alt
498.9 km
Apogee alt
507.9 km
Semi-major
6,881.5 km
B*
8.3010e-4
RAAN
151.2238°
Arg perigee
203.1334°
Mean anomaly
156.9223°
Rev number
19,158

§ Raw data

STARLINK-50161 56143U 23046BD  26262.07213014  .00018469  00000+0  83010-3 0  99922 56143  42.9963 151.2238 0006515 203.1334 156.9223 15.20810724191581

JSON: /api/v1/satellites/56143 · /tle

For live sub-satellite position, see the globe view (requires WebGL).

§ Visibility from observer

Set your observer location to see the next 7 days of passes ≥ 10°. The values pass through the URL so the page stays shareable.

No JS? Fill the form by hand. The geolocation button needs JavaScript.